Location: St. Louis
(38.6270°N, 90.1994°W)
Time: 12:01:42
(UTC-06:00)

S-56A Canister/Altair - Pass Details

Date: 08 December 2021
Orbit: 634 x 2499 km, 38.9° (Epoch: 26 January)

Event Time Altitude Azimuth Distance (km) Brightness Sun altitude
Rises 05:07:17 0° 278° (W) 3,658 - -22.6°
Reaches altitude 10° 05:11:23 10° 255° (WSW) 2,403 - -21.8°
Maximum altitude 05:14:12 14° 223° (SW) 1,950 - -21.2°
Exits shadow 05:14:51 14° 215° (SW) 1,935 9.4 -21.1°
Drops below altitude 10° 05:16:43 10° 191° (S) 2,107 9.8 -20.8°
Sets 05:19:54 0° 165° (SSE) 2,923 10.9 -20.2°
